SL-8 R/B, 3230

Orbit data source: Space-Track

SL-8 R/B, 3230 is space debris in LEO originally from a launch on Tue, 07 May 1968 UTC launched from the Plesetsk Missile And Space Complex (PKMTR). Debris objects in space refer to the collection of defunct objects orbiting the Earth. Examples of debris include non-operational satellites, rocket bodies, and fragments generated from explosions, collisions, or faulty payload assembly.

Loading next visibility...
Identifier
3230, 1968-040B
Orbit
LEO
Country
Flag of CISCIS
Related business
Manufacturer
Yuzhnoe
Mission
Spacecraft
Bus & Motor
S3, Unknown motor
Mass
1,434 kg wet, 1,434 kg dry
Launch date (UTC)
1968-05-07 (57 years ago)
Launch vehicle
Unknown
Launch site
Plesetsk Missile And Space Complex (PKMTR)
Object type
Payload
Rocket body
Debris
Shape & HBR
Unknown
Radar Cross Section
Large (>1 m²)

Expand to show TLE details & history
Last TLE update: 1 day ago

TLE from 1 day ago
0 SL-8 R/B
1 03230U 68040B   25306.21919938  .00004187  00000-0  31961-3 0  9997
2 03230  74.0318 213.9314 0023425  67.7586 292.6083 15.02121124 70861
Epoch: 2025-11-02T05:15Z
TLE epoch observation values (Epoch: 2025-11-02T05:15:38.826Z)
Latitude
-0.00004°
Longitude
93.28154°
Altitude
556.83 km
Speed
7.587 km/s
True Right ascension
14h 15m 43s
True Declination
0° 00' 00"
Sunlit
Object was in daylight at epoch
Visualization orbit readout
Latitude
Unknown
Longitude
Unknown
Altitude
Unknown
Speed
Unknown
Apparent Right ascension
Unknown
Apparent Declination
Unknown
Sunlit
N/A
Visualization observer readout
Local Sidereal Time
02:04:15
Azimuth
Unknown
Elevation
Unknown
Doppler factor
Unknown
Orbital elements
Apogee altitude
574.156 km
Perigee altitude
541.661 km
Semi-major axis
6,936.046 km
Eccentricity
0.00234
Inclination
74.0318°
RAAN
213.9314°
Arg. of periapsis
67.7586°
True anomaly
292.36022°
Mean anomaly
292.6083°
Eccentric anomaly
292.48429°
Mean motion
3.75729 °/min
Orbital period
95.81 mins
BSTAR
0.00031961
Loading maneuver chart data...
Computing Atmospheric mass density...
Loading historical data...
Loading historical data...
Loading historical data...
Loading historical data...
Loading historical data...
Loading historical data...
Loading historical data...
Other satellites on launch #40 in the year 1968 (1968-05-07 UTC)

Documentation

Showing up to 5 results
|